| time (UTC) | temp F | wind direction | speed knots | gust knots | rain 1hr in | rain 24hr in | rain mn in | humidity % | barometer mb |
| 20260507065018 | 53 | 139 | 0.9 | 3.5 | 0.00 | 0.00 | 0.00 | 94 | 1012.5 |
| 20260507064018 | 53 | 66 | 0.9 | 2.6 | 0.00 | 0.00 | 0.00 | 94 | 1012.5 |
| 20260507063018 | 53 | 166 | 0.0 | 2.6 | 0.00 | 0.00 | 0.00 | 95 | 1012.5 |
| 20260507062018 | 53 | 152 | 0.9 | 2.6 | 0.00 | 0.00 | 0.00 | 92 | 1012.5 |
| 20260507061017 | 53 | 141 | 0.9 | 2.6 | 0.00 | 0.00 | 0.00 | 94 | 1012.5 |
| 20260507060017 | 53 | 169 | 0.0 | 1.7 | 0.00 | 0.00 | 0.00 | 94 | 1012.2 |
| 20260507055016 | 52 | 190 | 0.9 | 1.7 | 0.00 | 0.00 | 0.00 | 96 | 1012.1 |
| 20260507054016 | 52 | 217 | 0.0 | 0.9 | 0.00 | 0.00 | 0.00 | 96 | 1012.1 |
| 20260507053016 | 52 | 162 | 0.9 | 2.6 | 0.00 | 0.00 | 0.00 | 95 | 1012.1 |
| 20260507052015 | 52 | 155 | 0.9 | 2.6 | 0.00 | 0.00 | 0.00 | 94 | 1012.0 |
| 20260507051015 | 52 | 191 | 1.7 | 7.8 | 0.00 | 0.00 | 0.00 | 94 | 1011.9 |
| 20260507045014 | 52 | 148 | 1.7 | 7.0 | 0.00 | 0.00 | 0.00 | 94 | 1011.7 |
| 20260507044014 | 51 | 145 | 0.9 | 2.6 | 0.00 | 0.00 | 0.00 | 95 | 1011.5 |
| 20260507042013 | 51 | 149 | 1.7 | 5.2 | 0.00 | 0.00 | 0.00 | 95 | 1011.2 |
| 20260507041013 | 51 | 68 | 0.9 | 3.5 | 0.00 | 0.00 | 0.00 | 96 | 1011.2 |
| 20260507040013 | 51 | 165 | 1.7 | 3.5 | 0.00 | 0.00 | 0.00 | 96 | 1011.2 |
| 20260507034012 | 51 | 142 | 2.6 | 6.1 | 0.00 | 0.00 | 0.00 | 95 | 1011.1 |
| 20260507033011 | 51 | 173 | 1.7 | 4.3 | 0.00 | 0.00 | 0.00 | 96 | 1011.0 |
| 20260507032011 | 51 | 156 | 2.6 | 4.3 | 0.00 | 0.00 | 0.00 | 95 | 1011.0 |
| 20260507031010 | 51 | 136 | 1.7 | 5.2 | 0.00 | 0.00 | 0.00 | 96 | 1011.0 |
| 20260507030010 | 51 | 177 | 1.7 | 4.3 | 0.00 | 0.00 | 0.00 | 96 | 1011.0 |
| 20260507025010 | 51 | 153 | 1.7 | 4.3 | 0.00 | 0.00 | 0.00 | 96 | 1010.8 |
| 20260507024010 | 51 | 150 | 1.7 | 3.5 | 0.00 | 0.00 | 0.00 | 96 | 1010.7 |
| 20260507023009 | 51 | 176 | 1.7 | 5.2 | 0.00 | 0.00 | 0.00 | 96 | 1010.7 |
| 20260507022009 | 51 | 145 | 1.7 | 2.6 | 0.00 | 0.00 | 0.00 | 96 | 1010.8 |
| 20260507021008 | 50 | 159 | 2.6 | 4.3 | 0.00 | 0.00 | 0.00 | 96 | 1010.7 |
| 20260507020009 | 51 | 139 | 0.9 | 2.6 | 0.00 | 0.00 | 0.00 | 97 | 1010.7 |
| 20260507015008 | 51 | 155 | 2.6 | 7.0 | 0.00 | 0.00 | 0.00 | 96 | 1010.7 |
| 20260507014007 | 50 | 121 | 1.7 | 3.5 | 0.00 | 0.00 | 0.00 | 97 | 1010.6 |
| 20260507013007 | 51 | 134 | 2.6 | 4.3 | 0.00 | 0.00 | 0.00 | 97 | 1010.6 |
| 20260507011006 | 50 | 138 | 3.5 | 6.1 | 0.00 | 0.00 | 0.00 | 97 | 1010.4 |
| 20260507010006 | 50 | 87 | 2.6 | 5.2 | 0.00 | 0.00 | 0.00 | 98 | 1010.4 |
| 20260507004005 | 49 | 132 | 1.7 | 3.5 | 0.00 | 0.00 | 0.00 | 99 | 1010.3 |
| 20260507003005 | 49 | 65 | 0.9 | 2.6 | 0.00 | 0.00 | 0.00 | 99 | 1010.3 |
| 20260507002004 | 49 | 131 | 1.7 | 2.6 | 0.00 | 0.00 | 0.00 | 99 | 1010.3 |
| 20260507001004 | 50 | 65 | 1.7 | 2.6 | 0.00 | 0.00 | 0.00 | 98 | 1010.3 |
| 20260506235003 | 50 | 153 | 0.9 | 4.3 | 0.00 | 0.00 | 0.00 | 98 | 1010.4 |
| 20260506234003 | 50 | 153 | 2.6 | 6.1 | 0.00 | 0.00 | 0.00 | 97 | 1010.3 |
| 20260506233003 | 50 | 39 | 3.5 | 7.0 | 0.00 | 0.00 | 0.00 | 97 | 1010.2 |
| 20260506232002 | 50 | 139 | 2.6 | 7.0 | 0.00 | 0.00 | 0.38 | 98 | 1010.1 |
| 20260506230002 | 50 | 86 | 2.6 | 3.5 | 0.00 | 0.00 | 0.38 | 99 | 1010.1 |
| 20260506225001 | 51 | 145 | 2.6 | 6.1 | 0.00 | 0.00 | 0.38 | 98 | 1010.1 |
| 20260506224000 | 51 | 160 | 3.5 | 5.2 | 0.00 | 0.00 | 0.38 | 98 | 1010.1 |
| 20260506223000 | 51 | 150 | 2.6 | 5.2 | 0.00 | 0.00 | 0.38 | 98 | 1010.1 |
| 20260506222000 | 51 | 97 | 2.6 | 4.3 | 0.00 | 0.00 | 0.38 | 98 | 1010.0 |
| 20260506221000 | 51 | 186 | 1.7 | 4.3 | 0.00 | 0.00 | 0.38 | 98 | 1009.9 |
| 20260506214959 | 51 | 152 | 1.7 | 4.3 | 0.00 | 0.00 | 0.38 | 98 | 1009.8 |
| 20260506213959 | 51 | 146 | 2.6 | 5.2 | 0.00 | 0.00 | 0.38 | 98 | 1009.9 |
| 20260506212958 | 51 | 128 | 2.6 | 5.2 | 0.00 | 0.00 | 0.38 | 99 | 1009.8 |
| 20260506211958 | 51 | 152 | 1.7 | 4.3 | 0.00 | 0.00 | 0.38 | 99 | 1009.7 |
| 20260506210957 | 51 | 155 | 0.9 | 2.6 | 0.00 | 0.00 | 0.38 | 99 | 1009.7 |
| 20260506204957 | 52 | 141 | 0.9 | 1.7 | 0.00 | 0.00 | 0.38 | 99 | 1009.5 |
| 20260506202956 | 52 | 183 | 2.6 | 5.2 | 0.00 | 0.00 | 0.38 | 99 | 1009.5 |
| 20260506201956 | 53 | 207 | 3.5 | 7.0 | 0.00 | 0.00 | 0.38 | 99 | 1009.5 |
| 20260506195955 | 54 | 231 | 2.6 | 7.8 | 0.00 | 0.00 | 0.38 | 98 | 1009.4 |
| 20260506193954 | 54 | 203 | 2.6 | 7.8 | 0.00 | 0.00 | 0.38 | 99 | 1008.9 |
| 20260506193042 | 54 | 226 | 2.6 | 6.1 | 0.00 | 0.00 | 0.38 | 99 | 1008.8 |
| 20260506190953 | 54 | 193 | 2.6 | 6.1 | 0.00 | 0.00 | 0.36 | 100 | 1008.1 |
| 20260506185953 | 54 | 169 | 2.6 | 5.2 | 0.00 | 0.00 | 0.35 | 100 | 1007.9 |
| 20260506183952 | 55 | 188 | 2.6 | 6.1 | 0.00 | 0.00 | 0.34 | 99 | 1007.0 |
| 20260506183047 | 55 | 132 | 1.7 | 7.0 | 0.00 | 0.00 | 0.34 | 99 | 1006.4 |
| 20260506182951 | 55 | 132 | 1.7 | 7.0 | 0.00 | 0.00 | 0.34 | 99 | 1006.4 |
| 20260506182105 | 55 | 221 | 2.6 | 6.1 | 0.00 | 0.00 | 0.34 | 99 | 1006.0 |
| 20260506180951 | 55 | 225 | 1.7 | 4.3 | 0.00 | 0.00 | 0.34 | 100 | 1005.9 |
| 20260506175950 | 55 | 135 | 1.7 | 5.2 | 0.00 | 0.00 | 0.34 | 100 | 1005.8 |
| 20260506174950 | 55 | 215 | 1.7 | 6.1 | 0.00 | 0.00 | 0.34 | 100 | 1005.5 |
| 20260506173950 | 55 | 219 | 0.0 | 2.6 | 0.00 | 0.00 | 0.34 | 99 | 1005.1 |
| 20260506172950 | 54 | 10 | 0.9 | 4.3 | 0.00 | 0.00 | 0.34 | 100 | 1004.7 |
| 20260506171949 | 54 | 354 | 4.3 | 9.6 | 0.00 | 0.00 | 0.34 | 100 | 1004.3 |
| 20260506165948 | 54 | 330 | 4.3 | 10.4 | 0.00 | 0.00 | 0.32 | 99 | 1004.4 |
| 20260506161947 | 71 | 359 | 2.6 | 5.2 | 0.00 | 0.00 | 0.00 | 63 | 1000.9 |
| 20260506160946 | 71 | 353 | 4.3 | 7.8 | 0.00 | 0.00 | 0.00 | 65 | 1001.5 |
| 20260506155946 | 71 | 18 | 5.2 | 8.7 | 0.00 | 0.00 | 0.00 | 61 | 1001.5 |
| 20260506154946 | 73 | 10 | 3.5 | 7.0 | 0.00 | 0.00 | 0.00 | 60 | 1001.4 |
| 20260506153945 | 73 | 8 | 2.6 | 8.7 | 0.00 | 0.00 | 0.00 | 59 | 1001.6 |
| 20260506152945 | 73 | 24 | 6.1 | 14.8 | 0.00 | 0.00 | 0.00 | 59 | 1001.7 |
| 20260506151944 | 73 | 10 | 4.3 | 9.6 | 0.00 | 0.00 | 0.00 | 60 | 1001.8 |
| 20260506145944 | 73 | 21 | 7.0 | 11.3 | 0.00 | 0.00 | 0.00 | 59 | 1002.0 |
| 20260506143943 | 74 | 23 | 4.3 | 13.9 | 0.00 | 0.00 | 0.00 | 59 | 1002.4 |
| 20260506142943 | 74 | 25 | 5.2 | 9.6 | 0.00 | 0.00 | 0.00 | 59 | 1002.5 |
| 20260506140942 | 74 | 38 | 7.0 | 13.0 | 0.00 | 0.00 | 0.00 | 57 | 1002.6 |
| 20260506135942 | 74 | 58 | 3.5 | 9.6 | 0.00 | 0.00 | 0.00 | 58 | 1002.8 |
| 20260506134942 | 73 | 10 | 5.2 | 11.3 | 0.00 | 0.00 | 0.00 | 60 | 1002.9 |
| 20260506133941 | 72 | 311 | 6.1 | 11.3 | 0.00 | 0.00 | 0.00 | 63 | 1002.9 |
| 20260506132940 | 73 | 8 | 5.2 | 9.6 | 0.00 | 0.00 | 0.00 | 61 | 1003.2 |
| 20260506131940 | 72 | 17 | 6.1 | 12.2 | 0.00 | 0.00 | 0.00 | 62 | 1003.3 |
| 20260506130940 | 70 | 314 | 5.2 | 12.2 | 0.00 | 0.00 | 0.00 | 67 | 1003.4 |
| 20260506125939 | 70 | 329 | 6.1 | 13.9 | 0.00 | 0.00 | 0.00 | 67 | 1003.6 |
| 20260506123939 | 72 | 4 | 5.2 | 9.6 | 0.00 | 0.00 | 0.00 | 64 | 1003.7 |
| 20260506122938 | 73 | 288 | 4.3 | 8.7 | 0.00 | 0.00 | 0.00 | 63 | 1003.8 |
| 20260506121938 | 74 | 288 | 4.3 | 13.9 | 0.00 | 0.00 | 0.00 | 60 | 1003.8 |
| 20260506120937 | 74 | 23 | 3.5 | 6.1 | 0.00 | 0.00 | 0.00 | 53 | 1003.9 |
| 20260506115937 | 75 | 21 | 2.6 | 7.0 | 0.00 | 0.00 | 0.00 | 56 | 1004.1 |
| 20260506113937 | 75 | 359 | 1.7 | 7.0 | 0.00 | 0.00 | 0.00 | 53 | 1004.4 |
| 20260506112936 | 74 | 23 | 2.6 | 8.7 | 0.00 | 0.00 | 0.00 | 54 | 1004.6 |
| 20260506111936 | 73 | 20 | 1.7 | 4.3 | 0.00 | 0.00 | 0.00 | 53 | 1004.8 |
| 20260506110936 | 73 | 0 | 1.7 | 4.3 | 0.00 | 0.00 | 0.00 | 55 | 1004.9 |
| 20260506104935 | 71 | 4 | 2.6 | 6.1 | 0.00 | 0.00 | 0.00 | 57 | 1005.4 |
| 20260506103934 | 71 | 187 | 2.6 | 8.7 | 0.00 | 0.00 | 0.00 | 56 | 1005.6 |
| 20260506102934 | 71 | 25 | 4.3 | 10.4 | 0.00 | 0.00 | 0.00 | 56 | 1005.6 |
| 20260506101934 | 70 | 32 | 3.5 | 7.8 | 0.00 | 0.00 | 0.00 | 59 | 1005.6 |
| 20260506100933 | 70 | 31 | 4.3 | 7.0 | 0.00 | 0.00 | 0.00 | 63 | 1005.7 |
| 20260506095933 | 69 | 20 | 2.6 | 7.8 | 0.00 | 0.00 | 0.00 | 65 | 1005.8 |
| 20260506094932 | 68 | 214 | 4.3 | 8.7 | 0.00 | 0.00 | 0.00 | 64 | 1006.0 |
| 20260506093932 | 68 | 288 | 4.3 | 7.8 | 0.00 | 0.00 | 0.00 | 69 | 1006.0 |
| 20260506092932 | 66 | 15 | 4.3 | 8.7 | 0.00 | 0.00 | 0.00 | 72 | 1006.0 |
| 20260506091931 | 67 | 288 | 4.3 | 7.8 | 0.00 | 0.00 | 0.00 | 69 | 1006.1 |
| 20260506090931 | 68 | 288 | 3.5 | 7.8 | 0.00 | 0.00 | 0.00 | 67 | 1006.0 |
| 20260506085931 | 68 | 11 | 4.3 | 8.7 | 0.00 | 0.00 | 0.00 | 70 | 1006.0 |
| 20260506083930 | 67 | 333 | 5.2 | 8.7 | 0.00 | 0.00 | 0.00 | 66 | 1006.2 |
| 20260506081929 | 69 | 27 | 3.5 | 6.1 | 0.00 | 0.00 | 0.00 | 63 | 1006.2 |
| 20260506080929 | 69 | 353 | 2.6 | 7.0 | 0.00 | 0.00 | 0.00 | 62 | 1006.3 |
| 20260506072928 | 74 | 203 | 0.0 | 2.6 | 0.00 | 0.00 | 0.00 | 58 | 1006.6 |
| 20260506071927 | 72 | 0 | 0.0 | 0.0 | 0.00 | 0.00 | 0.00 | 65 | 1006.7 |
| 20260506070927 | 70 | 188 | 0.0 | 0.9 | 0.00 | 0.00 | 0.00 | 71 | 1006.9 |